Location: Franzen
(48.6167°N, 15.3833°E)
Time: 03:58:26
(UTC+00:00)

Transit 2A - Pass Details

Date: 10 August 2021
Orbit: 594 x 964 km, 66.7° (Epoch: 21 September)

Event Time Altitude Azimuth Distance (km) Brightness Sun altitude
Rises 01:50:42 0° 163° (SSE) 2,842 - -15.9°
Exits shadow 01:51:39 - 158° (SSE) 2,539 8.5 -15.8°
Reaches altitude 10° 01:53:46 10° 139° (SE) 1,978 8.1 -15.6°
Maximum altitude 01:56:13 15° 105° (ESE) 1,724 8.2 -15.3°
Drops below altitude 10° 01:58:46 10° 72° (ENE) 2,068 9.2 -15.0°
Sets 02:02:04 0° 49° (NE) 3,059 11.0 -14.7°
